owner,sensor,date,latitude,longitude,vertical_datum,wind_speed,wind_to_direction,wind_speed_of_gust,qcFlag 
LUMCON,ioos:station:LUMCON:101:1,2006-11-01T16:00:00Z,29.2533,-90.6633,1.0,3.1,110.0,4.1,'11111222,11111222,11111222' 
LUMCON,ioos:station:LUMCON:101:1,2006-11-01T17:00:00Z,29.2533,-90.6633,1.0,2.6,80.0,3.6,'11111222,11111222,11111222' 
LUMCON,ioos:station:LUMCON:101:1,2006-11-01T18:00:00Z,29.2533,-90.6633,1.0,2.6,100.0,4.1,'11111222,11111222,11111222' 
LUMCON,ioos:station:LUMCON:101:1,2006-11-01T19:00:00Z,29.2533,-90.6633,1.0,2.6,100.0,4.6,'11111222,11111222,11111222' 
LUMCON,ioos:station:LUMCON:101:1,2006-11-01T21:00:00Z,29.2533,-90.6633,1.0,3.6,120.0,4.6,'11111222,11111222,11111222' 
LUMCON,ioos:station:LUMCON:101:1,2006-11-01T22:00:00Z,29.2533,-90.6633,1.0,2.6,150.0,4.1,'11111222,11111222,11111222' 
LUMCON,ioos:station:LUMCON:101:1,2006-11-01T23:00:00Z,29.2533,-90.6633,1.0,2.1,150.0,2.6,'11111222,11111222,11111222' 
LUMCON,ioos:station:LUMCON:101:1,2006-11-02T00:00:00Z,29.2533,-90.6633,1.0,2.1,130.0,2.6,'11111222,11111222,11111222' 
LUMCON,ioos:station:LUMCON:101:1,2006-11-02T01:00:00Z,29.2533,-90.6633,1.0,1.5,120.0,2.1,'11111222,11111222,11111222' 
LUMCON,ioos:station:LUMCON:101:1,2006-11-02T02:00:00Z,29.2533,-90.6633,1.0,0.5,240.0,1.0,'11111222,11111222,11111222' 
LUMCON,ioos:station:LUMCON:101:1,2006-11-02T03:00:00Z,29.2533,-90.6633,1.0,1.0,310.0,1.5,'11111222,11111222,11111222' 
LUMCON,ioos:station:LUMCON:101:1,2006-11-02T04:00:00Z,29.2533,-90.6633,1.0,2.6,350.0,3.6,'11111222,11111222,11111222' 
LUMCON,ioos:station:LUMCON:101:1,2006-11-02T05:00:00Z,29.2533,-90.6633,1.0,4.6,20.0,6.7,'11111222,11111222,11111222' 
LUMCON,ioos:station:LUMCON:101:1,2006-11-02T06:00:00Z,29.2533,-90.6633,1.0,4.6,30.0,6.2,'11111222,11111222,11111222' 
LUMCON,ioos:station:LUMCON:101:1,2006-11-02T07:00:00Z,29.2533,-90.6633,1.0,4.1,10.0,5.7,'11111222,11111222,11111222' 
LUMCON,ioos:station:LUMCON:101:1,2006-11-02T08:00:00Z,29.2533,-90.6633,1.0,5.1,10.0,7.7,'11111222,11111222,11111222' 
LUMCON,ioos:station:LUMCON:101:1,2006-11-02T09:00:00Z,29.2533,-90.6633,1.0,7.2,10.0,9.8,'11111222,11111222,11111222' 
LUMCON,ioos:station:LUMCON:101:1,2006-11-02T10:00:00Z,29.2533,-90.6633,1.0,6.7,0.0,8.2,'11111222,11111222,11111222' 
LUMCON,ioos:station:LUMCON:101:1,2006-11-02T11:00:00Z,29.2533,-90.6633,1.0,5.7,20.0,7.7,'11111222,11111222,11111222' 
LUMCON,ioos:station:LUMCON:101:1,2006-11-02T12:00:00Z,29.2533,-90.6633,1.0,8.2,320.0,9.8,'11111222,11111222,11111222' 
LUMCON,ioos:station:LUMCON:101:1,2006-11-02T13:00:00Z,29.2533,-90.6633,1.0,6.7,10.0,9.3,'11111222,11111222,11111222' 
LUMCON,ioos:station:LUMCON:101:1,2006-11-02T14:00:00Z,29.2533,-90.6633,1.0,7.7,20.0,9.8,'11111222,11111222,11111222' 
LUMCON,ioos:station:LUMCON:101:1,2006-11-02T15:00:00Z,29.2533,-90.6633,1.0,9.3,20.0,9.8,'11111222,11111222,11111222' 
LUMCON,ioos:station:LUMCON:101:1,2006-11-02T16:00:00Z,29.2533,-90.6633,1.0,8.2,10.0,9.8,'11111222,11111222,11111222' 
LUMCON,ioos:station:LUMCON:101:1,2006-11-02T17:00:00Z,29.2533,-90.6633,1.0,8.2,10.0,9.3,'11111222,11111222,11111222' 
LUMCON,ioos:station:LUMCON:101:1,2006-11-02T18:00:00Z,29.2533,-90.6633,1.0,8.2,20.0,9.8,'11111222,11111222,11111222' 
LUMCON,ioos:station:LUMCON:101:1,2006-11-02T19:00:00Z,29.2533,-90.6633,1.0,7.7,0.0,9.8,'11111222,11111222,11111222' 
LUMCON,ioos:station:LUMCON:101:1,2006-11-02T20:00:00Z,29.2533,-90.6633,1.0,7.2,20.0,9.8,'11111222,11111222,11111222' 
LUMCON,ioos:station:LUMCON:101:1,2006-11-02T21:00:00Z,29.2533,-90.6633,1.0,7.7,20.0,9.8,'11111222,11111222,11111222' 
LUMCON,ioos:station:LUMCON:101:1,2006-11-02T22:00:00Z,29.2533,-90.6633,1.0,7.2,50.0,9.8,'11111222,11111222,11111222' 
LUMCON,ioos:station:LUMCON:101:1,2006-11-02T23:00:00Z,29.2533,-90.6633,1.0,8.8,40.0,9.8,'11111222,11111222,11111222' 
LUMCON,ioos:station:LUMCON:101:1,2006-11-03T00:00:00Z,29.2533,-90.6633,1.0,7.7,20.0,9.3,'11111222,11111222,11111222' 
LUMCON,ioos:station:LUMCON:101:1,2006-11-03T01:00:00Z,29.2533,-90.6633,1.0,7.2,20.0,9.3,'11111222,11111222,11111222' 
LUMCON,ioos:station:LUMCON:101:1,2006-11-03T02:00:00Z,29.2533,-90.6633,1.0,8.8,20.0,9.3,'11111222,11111222,11111222' 
LUMCON,ioos:station:LUMCON:101:1,2006-11-03T03:00:00Z,29.2533,-90.6633,1.0,9.3,20.0,9.8,'11111222,11111222,11111222' 
LUMCON,ioos:station:LUMCON:101:1,2006-11-03T04:00:00Z,29.2533,-90.6633,1.0,7.7,30.0,9.8,'11111222,11111222,11111222' 
LUMCON,ioos:station:LUMCON:101:1,2006-11-03T05:00:00Z,29.2533,-90.6633,1.0,7.2,30.0,9.3,'11111222,11111222,11111222' 
LUMCON,ioos:station:LUMCON:101:1,2006-11-03T06:00:00Z,29.2533,-90.6633,1.0,9.3,30.0,9.8,'11111222,11111222,11111222' 
LUMCON,ioos:station:LUMCON:101:1,2006-11-03T07:00:00Z,29.2533,-90.6633,1.0,8.8,40.0,12.9,'11111222,11111222,11111222' 
LUMCON,ioos:station:LUMCON:101:1,2006-11-03T08:00:00Z,29.2533,-90.6633,1.0,9.3,40.0,9.3,'11111222,11111222,11111222' 
LUMCON,ioos:station:LUMCON:101:1,2006-11-03T09:00:00Z,29.2533,-90.6633,1.0,8.8,40.0,9.8,'11111222,11111222,11111222' 
LUMCON,ioos:station:LUMCON:101:1,2006-11-03T10:00:00Z,29.2533,-90.6633,1.0,7.2,40.0,9.8,'11111222,11111222,11111222' 
LUMCON,ioos:station:LUMCON:101:1,2006-11-03T11:00:00Z,29.2533,-90.6633,1.0,7.7,40.0,9.8,'11111222,11111222,11111222' 
LUMCON,ioos:station:LUMCON:101:1,2006-11-03T12:00:00Z,29.2533,-90.6633,1.0,5.7,40.0,8.2,'11111222,11111222,11111222' 
LUMCON,ioos:station:LUMCON:101:1,2006-11-03T13:00:00Z,29.2533,-90.6633,1.0,5.7,40.0,8.2,'11111222,11111222,11111222' 
LUMCON,ioos:station:LUMCON:101:1,2006-11-03T14:00:00Z,29.2533,-90.6633,1.0,7.2,50.0,9.8,'11111222,11111222,11111222' 
LUMCON,ioos:station:LUMCON:101:1,2006-11-03T15:00:00Z,29.2533,-90.6633,1.0,7.7,40.0,9.3,'11111222,11111222,11111222' 
LUMCON,ioos:station:LUMCON:101:1,2006-11-03T16:00:00Z,29.2533,-90.6633,1.0,8.8,40.0,9.8,'11111222,11111222,11111222' 
LUMCON,ioos:station:LUMCON:101:1,2006-11-03T17:00:00Z,29.2533,-90.6633,1.0,7.7,60.0,9.8,'11111222,11111222,11111222' 
LUMCON,ioos:station:LUMCON:101:1,2006-11-03T18:00:00Z,29.2533,-90.6633,1.0,7.2,50.0,9.3,'11111222,11111222,11111222' 
LUMCON,ioos:station:LUMCON:101:1,2006-11-03T19:00:00Z,29.2533,-90.6633,1.0,7.7,60.0,9.8,'11111222,11111222,11111222' 
LUMCON,ioos:station:LUMCON:101:1,2006-11-03T20:00:00Z,29.2533,-90.6633,1.0,6.7,50.0,9.3,'11111222,11111222,11111222' 
LUMCON,ioos:station:LUMCON:101:1,2006-11-03T21:00:00Z,29.2533,-90.6633,1.0,6.2,60.0,8.8,'11111222,11111222,11111222' 
LUMCON,ioos:station:LUMCON:101:1,2006-11-03T22:00:00Z,29.2533,-90.6633,1.0,5.7,30.0,8.2,'11111222,11111222,11111222' 
LUMCON,ioos:station:LUMCON:101:1,2006-11-03T23:00:00Z,29.2533,-90.6633,1.0,4.6,30.0,7.2,'11111222,11111222,11111222' 
LUMCON,ioos:station:LUMCON:101:1,2006-11-04T00:00:00Z,29.2533,-90.6633,1.0,4.6,30.0,5.7,'11111222,11111222,11111222' 
LUMCON,ioos:station:LUMCON:101:1,2006-11-04T01:00:00Z,29.2533,-90.6633,1.0,3.1,30.0,3.6,'11111222,11111222,11111222' 
LUMCON,ioos:station:LUMCON:101:1,2006-11-04T02:00:00Z,29.2533,-90.6633,1.0,4.1,40.0,4.6,'11111222,11111222,11111222' 
LUMCON,ioos:station:LUMCON:101:1,2006-11-04T03:00:00Z,29.2533,-90.6633,1.0,4.1,40.0,5.7,'11111222,11111222,11111222' 
LUMCON,ioos:station:LUMCON:101:1,2006-11-04T04:00:00Z,29.2533,-90.6633,1.0,4.6,50.0,7.2,'11111222,11111222,11111222' 
LUMCON,ioos:station:LUMCON:101:1,2006-11-04T05:00:00Z,29.2533,-90.6633,1.0,6.7,50.0,8.2,'11111222,11111222,11111222' 
LUMCON,ioos:station:LUMCON:101:1,2006-11-04T06:00:00Z,29.2533,-90.6633,1.0,5.1,50.0,7.7,'11111222,11111222,11111222' 
LUMCON,ioos:station:LUMCON:101:1,2006-11-04T07:00:00Z,29.2533,-90.6633,1.0,5.1,50.0,6.2,'11111222,11111222,11111222' 
LUMCON,ioos:station:LUMCON:101:1,2006-11-04T08:00:00Z,29.2533,-90.6633,1.0,3.6,50.0,4.6,'11111222,11111222,11111222' 
LUMCON,ioos:station:LUMCON:101:1,2006-11-04T09:00:00Z,29.2533,-90.6633,1.0,4.1,30.0,4.6,'11111222,11111222,11111222' 
LUMCON,ioos:station:LUMCON:101:1,2006-11-04T10:00:00Z,29.2533,-90.6633,1.0,4.6,40.0,5.7,'11111222,11111222,11111222' 
LUMCON,ioos:station:LUMCON:101:1,2006-11-04T11:00:00Z,29.2533,-90.6633,1.0,4.6,40.0,5.7,'11111222,11111222,11111222' 
LUMCON,ioos:station:LUMCON:101:1,2006-11-04T12:00:00Z,29.2533,-90.6633,1.0,4.1,20.0,5.7,'11111222,11111222,11111222' 
LUMCON,ioos:station:LUMCON:101:1,2006-11-04T13:00:00Z,29.2533,-90.6633,1.0,5.7,10.0,6.7,'11111222,11111222,11111222' 
LUMCON,ioos:station:LUMCON:101:1,2006-11-04T14:00:00Z,29.2533,-90.6633,1.0,6.2,30.0,8.2,'11111222,11111222,11111222' 
LUMCON,ioos:station:LUMCON:101:1,2006-11-04T15:00:00Z,29.2533,-90.6633,1.0,7.2,40.0,9.3,'11111222,11111222,11111222' 
LUMCON,ioos:station:LUMCON:101:1,2006-11-04T16:00:00Z,29.2533,-90.6633,1.0,6.7,50.0,9.3,'11111222,11111222,11111222' 
LUMCON,ioos:station:LUMCON:101:1,2006-11-04T17:00:00Z,29.2533,-90.6633,1.0,6.7,50.0,9.3,'11111222,11111222,11111222' 
LUMCON,ioos:station:LUMCON:101:1,2006-11-04T18:00:00Z,29.2533,-90.6633,1.0,6.7,60.0,9.3,'11111222,11111222,11111222' 
LUMCON,ioos:station:LUMCON:101:1,2006-11-04T19:00:00Z,29.2533,-90.6633,1.0,6.7,50.0,9.3,'11111222,11111222,11111222' 
LUMCON,ioos:station:LUMCON:101:1,2006-11-04T20:00:00Z,29.2533,-90.6633,1.0,7.7,50.0,9.8,'11111222,11111222,11111222' 
LUMCON,ioos:station:LUMCON:101:1,2006-11-04T21:00:00Z,29.2533,-90.6633,1.0,6.2,60.0,9.3,'11111222,11111222,11111222' 
LUMCON,ioos:station:LUMCON:101:1,2006-11-04T22:00:00Z,29.2533,-90.6633,1.0,6.7,60.0,9.3,'11111222,11111222,11111222' 
LUMCON,ioos:station:LUMCON:101:1,2006-11-04T23:00:00Z,29.2533,-90.6633,1.0,5.7,50.0,8.2,'11111222,11111222,11111222' 
LUMCON,ioos:station:LUMCON:101:1,2006-11-05T00:00:00Z,29.2533,-90.6633,1.0,5.7,70.0,9.3,'11111222,11111222,11111222' 
LUMCON,ioos:station:LUMCON:101:1,2006-11-05T01:00:00Z,29.2533,-90.6633,1.0,5.7,60.0,8.8,'11111222,11111222,11111222' 
LUMCON,ioos:station:LUMCON:101:1,2006-11-05T02:00:00Z,29.2533,-90.6633,1.0,5.7,60.0,7.7,'11111222,11111222,11111222' 
LUMCON,ioos:station:LUMCON:101:1,2006-11-05T03:00:00Z,29.2533,-90.6633,1.0,5.7,60.0,9.3,'11111222,11111222,11111222' 
LUMCON,ioos:station:LUMCON:101:1,2006-11-05T04:00:00Z,29.2533,-90.6633,1.0,6.2,60.0,8.8,'11111222,11111222,11111222' 
LUMCON,ioos:station:LUMCON:101:1,2006-11-05T05:00:00Z,29.2533,-90.6633,1.0,6.2,60.0,9.3,'11111222,11111222,11111222' 
LUMCON,ioos:station:LUMCON:101:1,2006-11-05T06:00:00Z,29.2533,-90.6633,1.0,5.7,70.0,8.2,'11111222,11111222,11111222' 
LUMCON,ioos:station:LUMCON:101:1,2006-11-05T07:00:00Z,29.2533,-90.6633,1.0,5.1,50.0,7.2,'11111222,11111222,11111222' 
LUMCON,ioos:station:LUMCON:101:1,2006-11-05T08:00:00Z,29.2533,-90.6633,1.0,5.7,50.0,7.7,'11111222,11111222,11111222' 
LUMCON,ioos:station:LUMCON:101:1,2006-11-05T09:00:00Z,29.2533,-90.6633,1.0,5.1,40.0,7.2,'11111222,11111222,11111222' 
LUMCON,ioos:station:LUMCON:101:1,2006-11-05T10:00:00Z,29.2533,-90.6633,1.0,5.1,50.0,7.2,'11111222,11111222,11111222' 
LUMCON,ioos:station:LUMCON:101:1,2006-11-05T11:00:00Z,29.2533,-90.6633,1.0,5.7,50.0,7.7,'11111222,11111222,11111222' 
LUMCON,ioos:station:LUMCON:101:1,2006-11-05T12:00:00Z,29.2533,-90.6633,1.0,4.6,50.0,6.7,'11111222,11111222,11111222' 
LUMCON,ioos:station:LUMCON:101:1,2006-11-05T13:00:00Z,29.2533,-90.6633,1.0,4.6,60.0,6.2,'11111222,11111222,11111222' 
LUMCON,ioos:station:LUMCON:101:1,2006-11-05T14:00:00Z,29.2533,-90.6633,1.0,5.1,60.0,7.2,'11111222,11111222,11111222' 
LUMCON,ioos:station:LUMCON:101:1,2006-11-05T15:00:00Z,29.2533,-90.6633,1.0,5.1,60.0,7.2,'11111222,11111222,11111222' 
LUMCON,ioos:station:LUMCON:101:1,2006-11-05T16:00:00Z,29.2533,-90.6633,1.0,5.1,70.0,8.8,'11111222,11111222,11111222' 
LUMCON,ioos:station:LUMCON:101:1,2006-11-05T17:00:00Z,29.2533,-90.6633,1.0,5.1,90.0,8.2,'11111222,11111222,11111222' 
LUMCON,ioos:station:LUMCON:101:1,2006-11-05T18:00:00Z,29.2533,-90.6633,1.0,5.7,70.0,9.3,'11111222,11111222,11111222' 
LUMCON,ioos:station:LUMCON:101:1,2006-11-05T19:00:00Z,29.2533,-90.6633,1.0,6.2,70.0,9.8,'11111222,11111222,11111222' 
LUMCON,ioos:station:LUMCON:101:1,2006-11-05T20:00:00Z,29.2533,-90.6633,1.0,7.2,60.0,9.8,'11111222,11111222,11111222' 
LUMCON,ioos:station:LUMCON:101:1,2006-11-05T21:00:00Z,29.2533,-90.6633,1.0,5.7,80.0,9.3,'11111222,11111222,11111222' 
LUMCON,ioos:station:LUMCON:101:1,2006-11-05T22:00:00Z,29.2533,-90.6633,1.0,4.1,80.0,8.2,'11111222,11111222,11111222' 
LUMCON,ioos:station:LUMCON:101:1,2006-11-05T23:00:00Z,29.2533,-90.6633,1.0,4.1,70.0,6.2,'11111222,11111222,11111222' 
LUMCON,ioos:station:LUMCON:101:1,2006-11-06T00:00:00Z,29.2533,-90.6633,1.0,4.1,50.0,6.2,'11111222,11111222,11111222' 
LUMCON,ioos:station:LUMCON:101:1,2006-11-06T01:00:00Z,29.2533,-90.6633,1.0,5.1,60.0,6.7,'11111222,11111222,11111222' 
LUMCON,ioos:station:LUMCON:101:1,2006-11-06T02:00:00Z,29.2533,-90.6633,1.0,5.1,50.0,7.2,'11111222,11111222,11111222' 
LUMCON,ioos:station:LUMCON:101:1,2006-11-06T03:00:00Z,29.2533,-90.6633,1.0,4.6,70.0,7.2,'11111222,11111222,11111222' 
LUMCON,ioos:station:LUMCON:101:1,2006-11-06T04:00:00Z,29.2533,-90.6633,1.0,4.1,60.0,6.2,'11111222,11111222,11111222' 
LUMCON,ioos:station:LUMCON:101:1,2006-11-06T05:00:00Z,29.2533,-90.6633,1.0,4.1,70.0,5.7,'11111222,11111222,11111222' 
LUMCON,ioos:station:LUMCON:101:1,2006-11-06T06:00:00Z,29.2533,-90.6633,1.0,3.6,60.0,6.2,'11111222,11111222,11111222' 
LUMCON,ioos:station:LUMCON:101:1,2006-11-06T07:00:00Z,29.2533,-90.6633,1.0,3.6,90.0,6.2,'11111222,11111222,11111222' 
LUMCON,ioos:station:LUMCON:101:1,2006-11-06T08:00:00Z,29.2533,-90.6633,1.0,3.1,60.0,4.1,'11111222,11111222,11111222' 
LUMCON,ioos:station:LUMCON:101:1,2006-11-06T09:00:00Z,29.2533,-90.6633,1.0,2.6,80.0,4.1,'11111222,11111222,11111222' 
LUMCON,ioos:station:LUMCON:101:1,2006-11-06T10:00:00Z,29.2533,-90.6633,1.0,3.6,100.0,5.1,'11111222,11111222,11111222' 
LUMCON,ioos:station:LUMCON:101:1,2006-11-06T11:00:00Z,29.2533,-90.6633,1.0,2.6,90.0,4.1,'11111222,11111222,11111222' 
LUMCON,ioos:station:LUMCON:101:1,2006-11-06T12:00:00Z,29.2533,-90.6633,1.0,3.1,100.0,4.1,'11111222,11111222,11111222' 
LUMCON,ioos:station:LUMCON:101:1,2006-11-06T13:00:00Z,29.2533,-90.6633,1.0,2.6,90.0,4.6,'11111222,11111222,11111222' 
LUMCON,ioos:station:LUMCON:101:1,2006-11-06T14:00:00Z,29.2533,-90.6633,1.0,3.1,90.0,5.1,'11111222,11111222,11111222' 
LUMCON,ioos:station:LUMCON:101:1,2006-11-06T15:00:00Z,29.2533,-90.6633,1.0,3.1,100.0,5.7,'11111222,11111222,11111222' 
LUMCON,ioos:station:LUMCON:101:1,2006-11-06T16:00:00Z,29.2533,-90.6633,1.0,3.6,110.0,5.1,'11111222,11111222,11111222' 
LUMCON,ioos:station:LUMCON:101:1,2006-11-06T17:00:00Z,29.2533,-90.6633,1.0,4.6,120.0,6.2,'11111222,11111222,11111222' 
LUMCON,ioos:station:LUMCON:101:1,2006-11-06T18:00:00Z,29.2533,-90.6633,1.0,5.7,160.0,9.8,'11111222,11111222,11111222' 
LUMCON,ioos:station:LUMCON:101:1,2006-11-06T19:00:00Z,29.2533,-90.6633,1.0,4.6,140.0,5.7,'11111222,11111222,11111222' 
LUMCON,ioos:station:LUMCON:101:1,2006-11-06T20:00:00Z,29.2533,-90.6633,1.0,4.6,170.0,7.2,'11111222,11111222,11111222' 
LUMCON,ioos:station:LUMCON:101:1,2006-11-06T21:00:00Z,29.2533,-90.6633,1.0,3.6,170.0,5.1,'11111222,11111222,11111222' 
LUMCON,ioos:station:LUMCON:101:1,2006-11-06T22:00:00Z,29.2533,-90.6633,1.0,9.8,350.0,99.0,'11111222,11111222,11144222' 
LUMCON,ioos:station:LUMCON:101:1,2006-11-06T23:00:00Z,29.2533,-90.6633,1.0,8.8,40.0,9.8,'11111222,11111222,11111222' 
LUMCON,ioos:station:LUMCON:101:1,2006-11-07T00:00:00Z,29.2533,-90.6633,1.0,4.1,30.0,7.2,'11111222,11111222,11111222' 
LUMCON,ioos:station:LUMCON:101:1,2006-11-07T01:00:00Z,29.2533,-90.6633,1.0,2.6,70.0,4.6,'11111222,11111222,11111222' 
LUMCON,ioos:station:LUMCON:101:1,2006-11-07T02:00:00Z,29.2533,-90.6633,1.0,2.6,80.0,4.1,'11111222,11111222,11111222' 
LUMCON,ioos:station:LUMCON:101:1,2006-11-07T03:00:00Z,29.2533,-90.6633,1.0,4.1,120.0,5.1,'11111222,11111222,11111222' 
LUMCON,ioos:station:LUMCON:101:1,2006-11-07T04:00:00Z,29.2533,-90.6633,1.0,1.5,20.0,2.1,'11111222,11111222,11111222' 
LUMCON,ioos:station:LUMCON:101:1,2006-11-07T05:00:00Z,29.2533,-90.6633,1.0,1.5,80.0,2.1,'11111222,11111222,11111222' 
LUMCON,ioos:station:LUMCON:101:1,2006-11-07T06:00:00Z,29.2533,-90.6633,1.0,2.6,320.0,3.1,'11111222,11111222,11111222' 
LUMCON,ioos:station:LUMCON:101:1,2006-11-07T07:00:00Z,29.2533,-90.6633,1.0,3.6,330.0,4.6,'11111222,11111222,11111222' 
LUMCON,ioos:station:LUMCON:101:1,2006-11-07T08:00:00Z,29.2533,-90.6633,1.0,4.6,350.0,5.7,'11111222,11111222,11111222' 
LUMCON,ioos:station:LUMCON:101:1,2006-11-07T09:00:00Z,29.2533,-90.6633,1.0,5.7,350.0,7.2,'11111222,11111222,11111222' 
LUMCON,ioos:station:LUMCON:101:1,2006-11-07T10:00:00Z,29.2533,-90.6633,1.0,5.7,340.0,7.2,'11111222,11111222,11111222' 
LUMCON,ioos:station:LUMCON:101:1,2006-11-07T11:00:00Z,29.2533,-90.6633,1.0,4.1,340.0,5.7,'11111222,11111222,11111222' 
LUMCON,ioos:station:LUMCON:101:1,2006-11-07T12:00:00Z,29.2533,-90.6633,1.0,3.6,350.0,5.1,'11111222,11111222,11111222' 
LUMCON,ioos:station:LUMCON:101:1,2006-11-07T13:00:00Z,29.2533,-90.6633,1.0,3.6,340.0,5.1,'11111222,11111222,11111222' 
LUMCON,ioos:station:LUMCON:101:1,2006-11-07T14:00:00Z,29.2533,-90.6633,1.0,4.6,320.0,5.7,'11111222,11111222,11111222' 
LUMCON,ioos:station:LUMCON:101:1,2006-11-07T15:00:00Z,29.2533,-90.6633,1.0,5.1,320.0,6.7,'11111222,11111222,11111222' 
LUMCON,ioos:station:LUMCON:101:1,2006-11-07T16:00:00Z,29.2533,-90.6633,1.0,5.7,330.0,7.2,'11111222,11111222,11111222' 
LUMCON,ioos:station:LUMCON:101:1,2006-11-07T17:00:00Z,29.2533,-90.6633,1.0,5.7,330.0,7.2,'11111222,11111222,11111222' 
LUMCON,ioos:station:LUMCON:101:1,2006-11-07T18:00:00Z,29.2533,-90.6633,1.0,6.7,330.0,8.8,'11111222,11111222,11111222' 
LUMCON,ioos:station:LUMCON:101:1,2006-11-07T19:00:00Z,29.2533,-90.6633,1.0,6.2,330.0,8.2,'11111222,11111222,11111222' 
LUMCON,ioos:station:LUMCON:101:1,2006-11-07T20:00:00Z,29.2533,-90.6633,1.0,5.1,320.0,7.7,'11111222,11111222,11111222' 
LUMCON,ioos:station:LUMCON:101:1,2006-11-07T21:00:00Z,29.2533,-90.6633,1.0,5.7,320.0,7.2,'11111222,11111222,11111222' 
LUMCON,ioos:station:LUMCON:101:1,2006-11-07T22:00:00Z,29.2533,-90.6633,1.0,4.1,320.0,5.1,'11111222,11111222,11111222' 
LUMCON,ioos:station:LUMCON:101:1,2006-11-07T23:00:00Z,29.2533,-90.6633,1.0,2.6,300.0,3.6,'11111222,11111222,11111222' 
LUMCON,ioos:station:LUMCON:101:1,2006-11-08T00:00:00Z,29.2533,-90.6633,1.0,2.6,300.0,3.1,'11111222,11111222,11111222' 
LUMCON,ioos:station:LUMCON:101:1,2006-11-08T01:00:00Z,29.2533,-90.6633,1.0,3.6,310.0,4.6,'11111222,11111222,11111222' 
LUMCON,ioos:station:LUMCON:101:1,2006-11-08T02:00:00Z,29.2533,-90.6633,1.0,2.6,310.0,3.1,'11111222,11111222,11111222' 
LUMCON,ioos:station:LUMCON:101:1,2006-11-08T03:00:00Z,29.2533,-90.6633,1.0,2.6,310.0,3.1,'11111222,11111222,11111222' 
LUMCON,ioos:station:LUMCON:101:1,2006-11-08T04:00:00Z,29.2533,-90.6633,1.0,3.1,320.0,4.1,'11111222,11111222,11111222' 
LUMCON,ioos:station:LUMCON:101:1,2006-11-08T05:00:00Z,29.2533,-90.6633,1.0,3.1,320.0,3.6,'11111222,11111222,11111222' 
LUMCON,ioos:station:LUMCON:101:1,2006-11-08T06:00:00Z,29.2533,-90.6633,1.0,4.1,320.0,4.6,'11111222,11111222,11111222' 
LUMCON,ioos:station:LUMCON:101:1,2006-11-08T07:00:00Z,29.2533,-90.6633,1.0,2.1,330.0,2.6,'11111222,11111222,11111222' 
LUMCON,ioos:station:LUMCON:101:1,2006-11-08T08:00:00Z,29.2533,-90.6633,1.0,2.1,300.0,2.1,'11111222,11111222,11111222' 
LUMCON,ioos:station:LUMCON:101:1,2006-11-08T09:00:00Z,29.2533,-90.6633,1.0,2.6,320.0,3.6,'11111222,11111222,11111222' 
LUMCON,ioos:station:LUMCON:101:1,2006-11-08T10:00:00Z,29.2533,-90.6633,1.0,3.1,330.0,4.1,'11111222,11111222,11111222' 
LUMCON,ioos:station:LUMCON:101:1,2006-11-08T11:00:00Z,29.2533,-90.6633,1.0,2.6,320.0,3.1,'11111222,11111222,11111222' 
LUMCON,ioos:station:LUMCON:101:1,2006-11-08T12:00:00Z,29.2533,-90.6633,1.0,2.6,300.0,3.1,'11111222,11111222,11111222' 
LUMCON,ioos:station:LUMCON:101:1,2006-11-08T13:00:00Z,29.2533,-90.6633,1.0,1.5,290.0,2.1,'11111222,11111222,11111222' 
LUMCON,ioos:station:LUMCON:101:1,2006-11-08T14:00:00Z,29.2533,-90.6633,1.0,2.1,290.0,3.1,'11111222,11111222,11111222' 
LUMCON,ioos:station:LUMCON:101:1,2006-11-08T15:00:00Z,29.2533,-90.6633,1.0,2.1,300.0,3.1,'11111222,11111222,11111222' 
LUMCON,ioos:station:LUMCON:101:1,2006-11-08T16:00:00Z,29.2533,-90.6633,1.0,3.1,320.0,4.6,'11111222,11111222,11111222' 
LUMCON,ioos:station:LUMCON:101:1,2006-11-08T17:00:00Z,29.2533,-90.6633,1.0,3.1,320.0,4.1,'11111222,11111222,11111222' 
LUMCON,ioos:station:LUMCON:101:1,2006-11-08T18:00:00Z,29.2533,-90.6633,1.0,2.1,270.0,4.1,'11111222,11111222,11111222' 
LUMCON,ioos:station:LUMCON:101:1,2006-11-08T19:00:00Z,29.2533,-90.6633,1.0,2.1,290.0,3.6,'11111222,11111222,11111222' 
LUMCON,ioos:station:LUMCON:101:1,2006-11-08T20:00:00Z,29.2533,-90.6633,1.0,2.6,250.0,4.1,'11111222,11111222,11111222' 
LUMCON,ioos:station:LUMCON:101:1,2006-11-08T21:00:00Z,29.2533,-90.6633,1.0,2.6,250.0,4.1,'11111222,11111222,11111222' 
LUMCON,ioos:station:LUMCON:101:1,2006-11-08T22:00:00Z,29.2533,-90.6633,1.0,3.1,260.0,4.6,'11111222,11111222,11111222' 
LUMCON,ioos:station:LUMCON:101:1,2006-11-08T23:00:00Z,29.2533,-90.6633,1.0,2.6,240.0,3.6,'11111222,11111222,11111222' 
LUMCON,ioos:station:LUMCON:101:1,2006-11-09T00:00:00Z,29.2533,-90.6633,1.0,3.1,220.0,4.1,'11111222,11111222,11111222' 
LUMCON,ioos:station:LUMCON:101:1,2006-11-09T01:00:00Z,29.2533,-90.6633,1.0,2.6,220.0,2.6,'11111222,11111222,11111222' 
LUMCON,ioos:station:LUMCON:101:1,2006-11-09T02:00:00Z,29.2533,-90.6633,1.0,2.6,220.0,3.1,'11111222,11111222,11111222' 
LUMCON,ioos:station:LUMCON:101:1,2006-11-09T03:00:00Z,29.2533,-90.6633,1.0,2.6,230.0,3.1,'11111222,11111222,11111222' 
LUMCON,ioos:station:LUMCON:101:1,2006-11-09T04:00:00Z,29.2533,-90.6633,1.0,2.1,230.0,2.1,'11111222,11111222,11111222' 
LUMCON,ioos:station:LUMCON:101:1,2006-11-09T05:00:00Z,29.2533,-90.6633,1.0,1.5,210.0,2.1,'11111222,11111222,11111222' 
LUMCON,ioos:station:LUMCON:101:1,2006-11-09T06:00:00Z,29.2533,-90.6633,1.0,2.1,200.0,2.6,'11111222,11111222,11111222' 
LUMCON,ioos:station:LUMCON:101:1,2006-11-09T07:00:00Z,29.2533,-90.6633,1.0,2.6,210.0,2.6,'11111222,11111222,11111222' 
LUMCON,ioos:station:LUMCON:101:1,2006-11-09T08:00:00Z,29.2533,-90.6633,1.0,1.5,210.0,2.1,'11111222,11111222,11111222' 
LUMCON,ioos:station:LUMCON:101:1,2006-11-09T09:00:00Z,29.2533,-90.6633,1.0,1.5,210.0,2.1,'11111222,11111222,11111222' 
LUMCON,ioos:station:LUMCON:101:1,2006-11-09T10:00:00Z,29.2533,-90.6633,1.0,1.5,200.0,2.1,'11111222,11111222,11111222' 
LUMCON,ioos:station:LUMCON:101:1,2006-11-09T11:00:00Z,29.2533,-90.6633,1.0,1.5,160.0,1.5,'11111222,11111222,11111222' 
LUMCON,ioos:station:LUMCON:101:1,2006-11-09T12:00:00Z,29.2533,-90.6633,1.0,1.5,130.0,1.5,'11111222,11111222,11111222' 
LUMCON,ioos:station:LUMCON:101:1,2006-11-09T13:00:00Z,29.2533,-90.6633,1.0,1.5,130.0,1.5,'11111222,11111222,11111222' 
LUMCON,ioos:station:LUMCON:101:1,2006-11-09T14:00:00Z,29.2533,-90.6633,1.0,2.1,140.0,2.1,'11111222,11111222,11111222' 
LUMCON,ioos:station:LUMCON:101:1,2006-11-09T15:00:00Z,29.2533,-90.6633,1.0,2.6,150.0,3.1,'11111222,11111222,11111222' 
LUMCON,ioos:station:LUMCON:101:1,2006-11-09T16:00:00Z,29.2533,-90.6633,1.0,3.1,140.0,3.6,'11111222,11111222,11111222' 
LUMCON,ioos:station:LUMCON:101:1,2006-11-09T17:00:00Z,29.2533,-90.6633,1.0,3.6,140.0,4.6,'11111222,11111222,11111222' 
LUMCON,ioos:station:LUMCON:101:1,2006-11-09T18:00:00Z,29.2533,-90.6633,1.0,4.1,180.0,6.2,'11111222,11111222,11111222' 
LUMCON,ioos:station:LUMCON:101:1,2006-11-09T19:00:00Z,29.2533,-90.6633,1.0,4.1,180.0,5.1,'11111222,11111222,11111222' 
LUMCON,ioos:station:LUMCON:101:1,2006-11-09T20:00:00Z,29.2533,-90.6633,1.0,4.1,170.0,5.7,'11111222,11111222,11111222' 
LUMCON,ioos:station:LUMCON:101:1,2006-11-09T21:00:00Z,29.2533,-90.6633,1.0,3.6,140.0,4.1,'11111222,11111222,11111222' 
LUMCON,ioos:station:LUMCON:101:1,2006-11-09T22:00:00Z,29.2533,-90.6633,1.0,2.6,140.0,3.6,'11111222,11111222,11111222' 
LUMCON,ioos:station:LUMCON:101:1,2006-11-09T23:00:00Z,29.2533,-90.6633,1.0,3.1,140.0,4.1,'11111222,11111222,11111222' 
LUMCON,ioos:station:LUMCON:101:1,2006-11-10T00:00:00Z,29.2533,-90.6633,1.0,3.1,130.0,4.1,'11111222,11111222,11111222' 
LUMCON,ioos:station:LUMCON:101:1,2006-11-10T01:00:00Z,29.2533,-90.6633,1.0,3.6,130.0,4.1,'11111222,11111222,11111222' 